| time (UTC) | temp C | wind direction | speed KPH | gust KPH | rain 1hr cm | rain 24hr cm | rain mn cm | humidity % | barometer mb |
| 20260906052538 | 23 | 43 | 6.4 | 11.3 | 0.00 | 0.00 | 0.00 | 86 | 1017.9 |
| 20260906052038 | 23 | 33 | 6.4 | 11.3 | 0.00 | 0.00 | 0.00 | 86 | 1017.9 |
| 20260906051558 | 23 | 36 | 4.8 | 11.3 | 0.00 | 0.00 | 0.00 | 86 | 1017.8 |
| 20260906051036 | 23 | 36 | 6.4 | 12.9 | 0.00 | 0.00 | 0.00 | 86 | 1017.8 |
| 20260906050536 | 23 | 32 | 6.4 | 12.9 | 0.00 | 0.00 | 0.00 | 86 | 1017.6 |
| 20260906050052 | 23 | 38 | 4.8 | 9.7 | 0.00 | 0.00 | 0.00 | 86 | 1017.6 |
| 20260906045539 | 23 | 25 | 3.2 | 9.7 | 0.00 | 0.00 | 0.00 | 86 | 1017.5 |
| 20260906045037 | 23 | 41 | 3.2 | 9.7 | 0.00 | 0.00 | 0.00 | 86 | 1017.4 |
| 20260906044549 | 23 | 43 | 4.8 | 9.7 | 0.00 | 0.00 | 0.00 | 86 | 1017.3 |
| 20260906044036 | 23 | 34 | 4.8 | 11.3 | 0.00 | 0.00 | 0.00 | 86 | 1017.3 |
| 20260906043536 | 23 | 32 | 4.8 | 11.3 | 0.00 | 0.00 | 0.00 | 85 | 1017.4 |
| 20260906043054 | 23 | 36 | 4.8 | 11.3 | 0.00 | 0.00 | 0.00 | 85 | 1017.4 |
| 20260906042536 | 23 | 31 | 4.8 | 11.3 | 0.00 | 0.00 | 0.00 | 85 | 1017.4 |
| 20260906042038 | 23 | 39 | 4.8 | 11.3 | 0.00 | 0.00 | 0.00 | 85 | 1017.5 |
| 20260906041553 | 23 | 35 | 4.8 | 8.0 | 0.00 | 0.00 | 0.00 | 85 | 1017.5 |
| 20260906041038 | 23 | 37 | 3.2 | 8.0 | 0.00 | 0.00 | 0.00 | 85 | 1017.5 |
| 20260906040538 | 23 | 38 | 4.8 | 9.7 | 0.00 | 0.00 | 0.00 | 85 | 1017.3 |
| 20260906040050 | 23 | 61 | 4.8 | 12.9 | 0.00 | 0.00 | 0.00 | 85 | 1017.2 |
| 20260906035537 | 23 | 34 | 6.4 | 12.9 | 0.00 | 0.00 | 0.00 | 85 | 1016.9 |
| 20260906035039 | 23 | 40 | 6.4 | 12.9 | 0.00 | 0.00 | 0.00 | 85 | 1016.7 |
| 20260906034604 | 23 | 47 | 6.4 | 11.3 | 0.00 | 0.00 | 0.00 | 85 | 1016.7 |
| 20260906034038 | 23 | 64 | 6.4 | 11.3 | 0.00 | 0.00 | 0.00 | 85 | 1016.8 |
| 20260906033534 | 23 | 59 | 4.8 | 12.9 | 0.00 | 0.00 | 0.00 | 85 | 1016.7 |
| 20260906033055 | 23 | 43 | 4.8 | 12.9 | 0.00 | 0.00 | 0.00 | 84 | 1016.7 |
| 20260906032538 | 24 | 73 | 6.4 | 12.9 | 0.00 | 0.00 | 0.00 | 84 | 1016.6 |
| 20260906032035 | 24 | 26 | 6.4 | 12.9 | 0.00 | 0.00 | 0.00 | 84 | 1016.7 |
| 20260906031554 | 24 | 57 | 8.0 | 12.9 | 0.00 | 0.00 | 0.00 | 84 | 1016.7 |
| 20260906031038 | 24 | 70 | 6.4 | 12.9 | 0.00 | 0.00 | 0.00 | 84 | 1016.8 |
| 20260906030535 | 24 | 74 | 4.8 | 12.9 | 0.00 | 0.00 | 0.00 | 84 | 1016.8 |
| 20260906030056 | 24 | 58 | 4.8 | 11.3 | 0.00 | 0.00 | 0.00 | 84 | 1016.8 |
| 20260906025534 | 24 | 35 | 6.4 | 14.5 | 0.00 | 0.00 | 0.00 | 84 | 1016.8 |
| 20260906025040 | 25 | 51 | 9.7 | 17.7 | 0.00 | 0.00 | 0.00 | 84 | 1016.9 |
| 20260906024557 | 25 | 36 | 9.7 | 17.7 | 0.00 | 0.00 | 0.00 | 84 | 1016.8 |
| 20260906024038 | 25 | 59 | 8.0 | 14.5 | 0.00 | 0.00 | 0.00 | 84 | 1017.0 |
| 20260906023538 | 25 | 49 | 6.4 | 14.5 | 0.00 | 0.00 | 0.00 | 84 | 1016.7 |
| 20260906023048 | 25 | 68 | 8.0 | 16.1 | 0.00 | 0.00 | 0.00 | 83 | 1016.8 |
| 20260906022537 | 25 | 49 | 9.7 | 16.1 | 0.00 | 0.00 | 0.00 | 83 | 1016.7 |
| 20260906022038 | 25 | 43 | 9.7 | 19.3 | 0.00 | 0.00 | 0.00 | 83 | 1016.7 |
| 20260906021556 | 25 | 46 | 9.7 | 19.3 | 0.00 | 0.00 | 0.00 | 82 | 1016.6 |
| 20260906021119 | 25 | 50 | 11.3 | 17.7 | 0.00 | 0.00 | 0.00 | 82 | 1016.5 |
| 20260906020535 | 25 | 30 | 11.3 | 17.7 | 0.00 | 0.00 | 0.00 | 82 | 1016.4 |
| 20260906020056 | 26 | 35 | 8.0 | 17.7 | 0.00 | 0.00 | 0.00 | 82 | 1016.3 |
| 20260906015535 | 26 | 53 | 11.3 | 17.7 | 0.00 | 0.00 | 0.00 | 82 | 1016.3 |
| 20260906015037 | 26 | 34 | 11.3 | 17.7 | 0.00 | 0.00 | 0.00 | 82 | 1016.3 |
| 20260906014554 | 26 | 36 | 9.7 | 20.9 | 0.00 | 0.00 | 0.00 | 82 | 1016.3 |
| 20260906014034 | 26 | 24 | 12.9 | 20.9 | 0.00 | 0.00 | 0.00 | 81 | 1016.1 |
| 20260906013541 | 26 | 30 | 14.5 | 20.9 | 0.00 | 0.00 | 0.00 | 81 | 1016.1 |
| 20260906013058 | 26 | 32 | 12.9 | 17.7 | 0.00 | 0.00 | 0.00 | 81 | 1016.1 |
| 20260906012537 | 26 | 16 | 11.3 | 17.7 | 0.00 | 0.00 | 0.00 | 81 | 1016.1 |
| 20260906012038 | 27 | 31 | 12.9 | 17.7 | 0.00 | 0.00 | 0.00 | 80 | 1016.1 |
| 20260906011555 | 27 | 32 | 12.9 | 19.3 | 0.00 | 0.00 | 0.00 | 80 | 1016.1 |
| 20260906011035 | 27 | 42 | 12.9 | 19.3 | 0.00 | 0.00 | 0.00 | 79 | 1015.9 |
| 20260906010539 | 27 | 37 | 9.7 | 17.7 | 0.00 | 0.00 | 0.00 | 79 | 1015.8 |
| 20260906010137 | 27 | 28 | 9.7 | 17.7 | 0.00 | 0.00 | 0.00 | 79 | 1015.8 |
| 20260906005534 | 27 | 36 | 11.3 | 17.7 | 0.00 | 0.00 | 0.00 | 78 | 1015.7 |
| 20260906005040 | 27 | 28 | 11.3 | 16.1 | 0.00 | 0.00 | 0.00 | 78 | 1015.7 |
| 20260906004608 | 28 | 39 | 9.7 | 16.1 | 0.00 | 0.00 | 0.00 | 78 | 1015.7 |
| 20260906004037 | 28 | 11 | 8.0 | 14.5 | 0.00 | 0.00 | 0.00 | 78 | 1015.7 |
| 20260906003538 | 28 | 27 | 9.7 | 14.5 | 0.00 | 0.00 | 0.00 | 77 | 1015.6 |
| 20260906003058 | 28 | 22 | 9.7 | 14.5 | 0.00 | 0.00 | 0.00 | 77 | 1015.7 |
| 20260906002539 | 28 | 34 | 8.0 | 17.7 | 0.00 | 0.00 | 0.00 | 76 | 1015.7 |
| 20260906002036 | 28 | 34 | 12.9 | 17.7 | 0.00 | 0.00 | 0.00 | 76 | 1015.6 |
| 20260906001603 | 28 | 2 | 8.0 | 16.1 | 0.00 | 0.00 | 0.00 | 76 | 1015.7 |
| 20260906001038 | 29 | 16 | 11.3 | 20.9 | 0.00 | 0.00 | 0.00 | 76 | 1015.7 |
| 20260906000535 | 29 | 28 | 14.5 | 20.9 | 0.00 | 0.00 | 0.00 | 76 | 1015.7 |
| 20260906000057 | 29 | 35 | 12.9 | 20.9 | 0.00 | 0.00 | 0.00 | 76 | 1015.7 |
| 20260905235538 | 30 | 18 | 11.3 | 22.5 | 0.00 | 0.00 | 0.00 | 75 | 1015.6 |
| 20260905235035 | 30 | 7 | 14.5 | 22.5 | 0.00 | 0.00 | 0.00 | 75 | 1015.5 |
| 20260905234551 | 30 | 32 | 16.1 | 22.5 | 0.00 | 0.00 | 0.00 | 74 | 1015.5 |
| 20260905234038 | 30 | 18 | 12.9 | 20.9 | 0.00 | 0.00 | 0.00 | 73 | 1015.4 |
| 20260905233536 | 31 | 15 | 8.0 | 14.5 | 0.00 | 0.00 | 0.00 | 73 | 1015.4 |
| 20260905233056 | 31 | 22 | 9.7 | 14.5 | 0.00 | 0.00 | 0.00 | 73 | 1015.4 |
| 20260905232535 | 31 | 15 | 8.0 | 12.9 | 0.00 | 0.00 | 0.00 | 72 | 1015.4 |
| 20260905232035 | 31 | 25 | 6.4 | 12.9 | 0.00 | 0.00 | 0.00 | 72 | 1015.3 |
| 20260905231556 | 31 | 30 | 6.4 | 14.5 | 0.00 | 0.00 | 0.00 | 71 | 1015.2 |
| 20260905231036 | 31 | 28 | 9.7 | 19.3 | 0.00 | 0.00 | 0.00 | 70 | 1015.1 |
| 20260905230537 | 31 | 22 | 11.3 | 19.3 | 0.00 | 0.00 | 0.00 | 69 | 1015.2 |
| 20260905230048 | 32 | 12 | 12.9 | 19.3 | 0.00 | 0.00 | 0.00 | 68 | 1015.2 |
| 20260905225538 | 32 | 10 | 11.3 | 16.1 | 0.00 | 0.00 | 0.00 | 68 | 1015.1 |
| 20260905225035 | 32 | 22 | 9.7 | 14.5 | 0.00 | 0.00 | 0.00 | 67 | 1015.1 |
| 20260905224545 | 32 | 16 | 9.7 | 16.1 | 0.00 | 0.00 | 0.00 | 67 | 1015.1 |
| 20260905224036 | 32 | 45 | 6.4 | 16.1 | 0.00 | 0.00 | 0.00 | 68 | 1015.1 |
| 20260905223536 | 32 | 41 | 9.7 | 16.1 | 0.00 | 0.00 | 0.00 | 67 | 1015.1 |
| 20260905223056 | 32 | 29 | 8.0 | 12.9 | 0.00 | 0.00 | 0.00 | 66 | 1015.1 |
| 20260905222536 | 32 | 39 | 6.4 | 12.9 | 0.00 | 0.00 | 0.00 | 67 | 1015.1 |
| 20260905222036 | 32 | 9 | 9.7 | 12.9 | 0.00 | 0.00 | 0.00 | 67 | 1015.0 |
| 20260905221554 | 33 | 11 | 6.4 | 11.3 | 0.00 | 0.00 | 0.00 | 65 | 1015.1 |
| 20260905221036 | 33 | 21 | 4.8 | 14.5 | 0.00 | 0.00 | 0.00 | 65 | 1015.1 |
| 20260905220536 | 33 | 27 | 9.7 | 14.5 | 0.00 | 0.00 | 0.00 | 65 | 1015.2 |
| 20260905220046 | 33 | 326 | 8.0 | 12.9 | 0.00 | 0.00 | 0.00 | 66 | 1015.2 |
| 20260905215536 | 32 | 340 | 4.8 | 14.5 | 0.00 | 0.00 | 0.00 | 67 | 1015.1 |
| 20260905215036 | 32 | 7 | 6.4 | 14.5 | 0.00 | 0.00 | 0.00 | 65 | 1015.1 |
| 20260905214553 | 32 | 16 | 9.7 | 14.5 | 0.00 | 0.00 | 0.00 | 65 | 1015.1 |
| 20260905214036 | 32 | 342 | 8.0 | 14.5 | 0.00 | 0.00 | 0.00 | 66 | 1015.0 |
| 20260905213536 | 32 | 357 | 9.7 | 14.5 | 0.00 | 0.00 | 0.00 | 65 | 1015.1 |
| 20260905213050 | 32 | 347 | 6.4 | 16.1 | 0.00 | 0.00 | 0.00 | 65 | 1015.1 |
| 20260905212540 | 32 | 347 | 11.3 | 16.1 | 0.00 | 0.00 | 0.00 | 65 | 1015.2 |
| 20260905212036 | 32 | 7 | 9.7 | 16.1 | 0.00 | 0.00 | 0.00 | 68 | 1015.2 |
| 20260905211601 | 32 | 20 | 12.9 | 16.1 | 0.00 | 0.00 | 0.00 | 67 | 1015.2 |
| 20260905211036 | 32 | 352 | 11.3 | 17.7 | 0.00 | 0.00 | 0.00 | 67 | 1015.4 |
| 20260905210535 | 32 | 345 | 9.7 | 17.7 | 0.00 | 0.00 | 0.00 | 67 | 1015.4 |
| 20260905210110 | 32 | 349 | 14.5 | 17.7 | 0.00 | 0.00 | 0.00 | 67 | 1015.4 |
| 20260905205536 | 32 | 28 | 11.3 | 17.7 | 0.00 | 0.00 | 0.00 | 67 | 1015.5 |
| 20260905205035 | 32 | 354 | 11.3 | 17.7 | 0.00 | 0.00 | 0.00 | 67 | 1015.6 |
| 20260905204552 | 32 | 21 | 8.0 | 17.7 | 0.00 | 0.00 | 0.00 | 68 | 1015.6 |
| 20260905204036 | 32 | 9 | 11.3 | 17.7 | 0.00 | 0.00 | 0.00 | 69 | 1015.6 |
| 20260905203536 | 32 | 42 | 8.0 | 17.7 | 0.00 | 0.00 | 0.00 | 69 | 1015.6 |
| 20260905203048 | 32 | 11 | 11.3 | 17.7 | 0.00 | 0.00 | 0.00 | 69 | 1015.6 |
| 20260905202535 | 32 | 358 | 8.0 | 16.1 | 0.00 | 0.00 | 0.00 | 69 | 1015.6 |
| 20260905202036 | 32 | 36 | 11.3 | 17.7 | 0.00 | 0.00 | 0.00 | 69 | 1015.5 |
| 20260905201556 | 32 | 357 | 12.9 | 19.3 | 0.00 | 0.00 | 0.00 | 68 | 1015.6 |
| 20260905201035 | 32 | 11 | 12.9 | 17.7 | 0.00 | 0.00 | 0.00 | 67 | 1015.6 |
| 20260905200535 | 33 | 18 | 9.7 | 16.1 | 0.00 | 0.00 | 0.00 | 68 | 1015.6 |
| 20260905200118 | 33 | 352 | 8.0 | 12.9 | 0.00 | 0.00 | 0.00 | 66 | 1015.6 |
| 20260905195535 | 33 | 22 | 6.4 | 12.9 | 0.00 | 0.00 | 0.00 | 66 | 1015.7 |
| 20260905195037 | 32 | 350 | 6.4 | 12.9 | 0.00 | 0.00 | 0.00 | 66 | 1015.8 |
| 20260905194552 | 32 | 336 | 6.4 | 16.1 | 0.00 | 0.00 | 0.00 | 66 | 1015.7 |
| 20260905194036 | 32 | 354 | 8.0 | 16.1 | 0.00 | 0.00 | 0.00 | 67 | 1015.8 |
| 20260905193535 | 32 | 346 | 12.9 | 16.1 | 0.00 | 0.00 | 0.00 | 67 | 1015.9 |
| 20260905193101 | 33 | 343 | 8.0 | 16.1 | 0.00 | 0.00 | 0.00 | 68 | 1015.9 |
| 20260905192536 | 33 | 329 | 9.7 | 16.1 | 0.00 | 0.00 | 0.00 | 65 | 1015.9 |
| 20260905192037 | 33 | 331 | 11.3 | 16.1 | 0.00 | 0.00 | 0.00 | 66 | 1015.8 |
| 20260905191556 | 33 | 324 | 8.0 | 14.5 | 0.00 | 0.00 | 0.00 | 67 | 1015.9 |
| 20260905191036 | 33 | 330 | 4.8 | 12.9 | 0.00 | 0.00 | 0.00 | 65 | 1015.9 |
| 20260905190535 | 33 | 17 | 8.0 | 12.9 | 0.00 | 0.00 | 0.00 | 65 | 1015.9 |
| 20260905190054 | 33 | 353 | 9.7 | 14.5 | 0.00 | 0.00 | 0.00 | 65 | 1016.0 |
| 20260905185535 | 33 | 349 | 9.7 | 14.5 | 0.00 | 0.00 | 0.00 | 65 | 1015.9 |
| 20260905185036 | 33 | 338 | 4.8 | 16.1 | 0.00 | 0.00 | 0.00 | 65 | 1016.0 |
| 20260905184600 | 33 | 341 | 8.0 | 16.1 | 0.00 | 0.00 | 0.00 | 66 | 1015.9 |
| 20260905184039 | 33 | 350 | 6.4 | 16.1 | 0.00 | 0.00 | 0.00 | 65 | 1015.9 |
| 20260905183536 | 33 | 332 | 6.4 | 16.1 | 0.00 | 0.00 | 0.00 | 65 | 1015.9 |
| 20260905183057 | 33 | 9 | 8.0 | 16.1 | 0.00 | 0.00 | 0.00 | 66 | 1016.1 |
| 20260905182539 | 33 | 19 | 11.3 | 16.1 | 0.00 | 0.00 | 0.00 | 66 | 1016.1 |
| 20260905182040 | 33 | 7 | 6.4 | 16.1 | 0.00 | 0.00 | 0.00 | 66 | 1016.0 |
| 20260905181555 | 32 | 20 | 4.8 | 16.1 | 0.00 | 0.00 | 0.00 | 65 | 1016.0 |
| 20260905181035 | 32 | 337 | 9.7 | 16.1 | 0.00 | 0.00 | 0.00 | 65 | 1016.0 |
| 20260905180537 | 32 | 8 | 12.9 | 16.1 | 0.00 | 0.00 | 0.00 | 66 | 1016.1 |
| 20260905180050 | 32 | 16 | 6.4 | 14.5 | 0.00 | 0.00 | 0.00 | 66 | 1016.1 |
| 20260905175536 | 32 | 6 | 9.7 | 14.5 | 0.00 | 0.00 | 0.00 | 67 | 1016.1 |
| 20260905175037 | 32 | 18 | 6.4 | 17.7 | 0.00 | 0.00 | 0.00 | 67 | 1016.1 |
| 20260905174546 | 32 | 340 | 9.7 | 17.7 | 0.00 | 0.00 | 0.00 | 66 | 1016.2 |
| 20260905174039 | 32 | 352 | 12.9 | 17.7 | 0.00 | 0.00 | 0.00 | 66 | 1016.4 |
| 20260905173535 | 32 | 347 | 11.3 | 16.1 | 0.00 | 0.00 | 0.00 | 65 | 1016.3 |
| 20260905173055 | 32 | 19 | 6.4 | 17.7 | 0.00 | 0.00 | 0.00 | 67 | 1016.3 |
| 20260905172536 | 32 | 13 | 9.7 | 17.7 | 0.00 | 0.00 | 0.00 | 66 | 1016.4 |
| 20260905172035 | 32 | 30 | 9.7 | 17.7 | 0.00 | 0.00 | 0.00 | 67 | 1016.5 |
| 20260905171553 | 32 | 30 | 11.3 | 17.7 | 0.00 | 0.00 | 0.00 | 68 | 1016.5 |
| 20260905171037 | 32 | 34 | 9.7 | 17.7 | 0.00 | 0.00 | 0.00 | 69 | 1016.5 |
| 20260905170535 | 32 | 357 | 12.9 | 17.7 | 0.00 | 0.00 | 0.00 | 68 | 1016.6 |
| 20260905170057 | 32 | 11 | 9.7 | 14.5 | 0.00 | 0.00 | 0.00 | 67 | 1016.6 |
| 20260905165537 | 32 | 347 | 8.0 | 16.1 | 0.00 | 0.00 | 0.00 | 68 | 1016.6 |
| 20260905165035 | 32 | 342 | 6.4 | 16.1 | 0.00 | 0.00 | 0.00 | 68 | 1016.6 |
| 20260905164554 | 32 | 6 | 8.0 | 16.1 | 0.00 | 0.00 | 0.00 | 69 | 1016.6 |
| 20260905164036 | 32 | 342 | 6.4 | 16.1 | 0.00 | 0.00 | 0.00 | 69 | 1016.6 |
| 20260905163535 | 31 | 5 | 8.0 | 16.1 | 0.00 | 0.00 | 0.00 | 69 | 1016.6 |
| 20260905163053 | 31 | 21 | 8.0 | 17.7 | 0.00 | 0.00 | 0.00 | 69 | 1016.6 |
| 20260905162535 | 31 | 41 | 8.0 | 17.7 | 0.00 | 0.00 | 0.00 | 69 | 1016.6 |
| 20260905162034 | 31 | 7 | 11.3 | 17.7 | 0.00 | 0.00 | 0.00 | 68 | 1016.6 |
| 20260905161547 | 31 | 334 | 11.3 | 16.1 | 0.00 | 0.00 | 0.00 | 68 | 1016.5 |
| 20260905161036 | 31 | 11 | 9.7 | 16.1 | 0.00 | 0.00 | 0.00 | 68 | 1016.4 |
| 20260905160538 | 31 | 341 | 9.7 | 16.1 | 0.00 | 0.00 | 0.00 | 67 | 1016.4 |
| 20260905160056 | 31 | 330 | 11.3 | 16.1 | 0.00 | 0.00 | 0.00 | 66 | 1016.5 |
| 20260905155536 | 31 | 331 | 8.0 | 16.1 | 0.00 | 0.00 | 0.00 | 67 | 1016.3 |
| 20260905155035 | 31 | 14 | 8.0 | 16.1 | 0.00 | 0.00 | 0.00 | 68 | 1016.3 |
| 20260905154601 | 31 | 343 | 11.3 | 16.1 | 0.00 | 0.00 | 0.00 | 69 | 1016.3 |
| 20260905154035 | 30 | 356 | 11.3 | 17.7 | 0.00 | 0.00 | 0.00 | 70 | 1016.4 |
| 20260905153537 | 30 | 2 | 12.9 | 17.7 | 0.00 | 0.00 | 0.00 | 71 | 1016.5 |
| 20260905153052 | 30 | 1 | 11.3 | 16.1 | 0.00 | 0.00 | 0.00 | 71 | 1016.4 |
| 20260905152535 | 30 | 360 | 6.4 | 16.1 | 0.00 | 0.00 | 0.00 | 70 | 1016.3 |
| 20260905152035 | 30 | 338 | 11.3 | 16.1 | 0.00 | 0.00 | 0.00 | 70 | 1016.3 |
| 20260905151558 | 30 | 353 | 11.3 | 14.5 | 0.00 | 0.00 | 0.00 | 70 | 1016.3 |
| 20260905151035 | 30 | 331 | 8.0 | 12.9 | 0.00 | 0.00 | 0.00 | 71 | 1016.3 |
| 20260905150535 | 30 | 336 | 4.8 | 11.3 | 0.00 | 0.00 | 0.00 | 71 | 1016.2 |
| 20260905150055 | 30 | 325 | 6.4 | 12.9 | 0.00 | 0.00 | 0.00 | 71 | 1016.0 |
| 20260905145536 | 30 | 337 | 9.7 | 12.9 | 0.00 | 0.00 | 0.00 | 70 | 1015.9 |
| 20260905145035 | 30 | 341 | 8.0 | 12.9 | 0.00 | 0.00 | 0.00 | 71 | 1016.0 |
| 20260905144555 | 30 | 342 | 3.2 | 14.5 | 0.00 | 0.00 | 0.00 | 71 | 1015.8 |
| 20260905144035 | 30 | 274 | 6.4 | 14.5 | 0.00 | 0.00 | 0.00 | 70 | 1015.8 |
| 20260905143535 | 30 | 298 | 6.4 | 12.9 | 0.00 | 0.00 | 0.00 | 70 | 1015.7 |
| 20260905143052 | 30 | 274 | 4.8 | 9.7 | 0.00 | 0.00 | 0.00 | 72 | 1015.6 |
| 20260905142535 | 29 | 267 | 4.8 | 9.7 | 0.00 | 0.00 | 0.00 | 72 | 1015.6 |
| 20260905142035 | 29 | 251 | 4.8 | 9.7 | 0.00 | 0.00 | 0.00 | 71 | 1015.6 |
| 20260905141555 | 29 | 0 | 4.8 | 9.7 | 0.00 | 0.00 | 0.00 | 71 | 1015.6 |
| 20260905141035 | 29 | 242 | 4.8 | 9.7 | 0.00 | 0.00 | 0.00 | 71 | 1015.5 |
| 20260905140535 | 29 | 251 | 3.2 | 8.0 | 0.00 | 0.00 | 0.00 | 72 | 1015.4 |
| 20260905140055 | 28 | 257 | 1.6 | 9.7 | 0.00 | 0.00 | 0.00 | 72 | 1015.4 |
| 20260905135539 | 28 | 269 | 1.6 | 11.3 | 0.00 | 0.00 | 0.00 | 73 | 1015.6 |
| 20260905135035 | 28 | 290 | 6.4 | 11.3 | 0.00 | 0.00 | 0.00 | 72 | 1015.5 |
| 20260905134552 | 28 | 286 | 4.8 | 9.7 | 0.00 | 0.00 | 0.00 | 73 | 1015.5 |
| 20260905134037 | 28 | 245 | 3.2 | 12.9 | 0.00 | 0.00 | 0.00 | 74 | 1015.3 |
| 20260905133535 | 28 | 255 | 4.8 | 12.9 | 0.00 | 0.00 | 0.00 | 73 | 1015.4 |
| 20260905133044 | 28 | 272 | 4.8 | 9.7 | 0.00 | 0.00 | 0.00 | 74 | 1015.2 |
| 20260905132535 | 27 | 224 | 3.2 | 11.3 | 0.00 | 0.00 | 0.00 | 75 | 1015.1 |
| 20260905132036 | 27 | 237 | 4.8 | 11.3 | 0.00 | 0.00 | 0.00 | 75 | 1015.1 |
| 20260905131603 | 27 | 246 | 4.8 | 11.3 | 0.00 | 0.00 | 0.00 | 76 | 1015.1 |
| 20260905131035 | 27 | 234 | 4.8 | 11.3 | 0.00 | 0.00 | 0.00 | 77 | 1015.1 |
| 20260905130535 | 26 | 240 | 4.8 | 11.3 | 0.00 | 0.00 | 0.00 | 77 | 1015.1 |
| 20260905130051 | 26 | 236 | 4.8 | 11.3 | 0.00 | 0.00 | 0.00 | 78 | 1015.1 |
| 20260905125535 | 26 | 226 | 3.2 | 8.0 | 0.00 | 0.00 | 0.00 | 79 | 1015.1 |
| 20260905125035 | 26 | 245 | 3.2 | 8.0 | 0.00 | 0.00 | 0.00 | 80 | 1015.3 |
| 20260905124548 | 25 | 235 | 3.2 | 8.0 | 0.00 | 0.00 | 0.00 | 81 | 1015.4 |
| 20260905124037 | 25 | 226 | 1.6 | 8.0 | 0.00 | 0.00 | 0.00 | 81 | 1015.4 |
| 20260905123537 | 25 | 262 | 3.2 | 8.0 | 0.00 | 0.00 | 0.00 | 82 | 1015.4 |
| 20260905123109 | 25 | 244 | 1.6 | 4.8 | 0.00 | 0.00 | 0.00 | 83 | 1015.5 |
| 20260905122535 | 24 | 356 | 0.0 | 3.2 | 0.00 | 0.00 | 0.00 | 83 | 1015.3 |
| 20260905122038 | 24 | 0 | 0.0 | 1.6 | 0.00 | 0.00 | 0.00 | 83 | 1015.2 |
| 20260905121553 | 24 | 0 | 0.0 | 3.2 | 0.00 | 0.00 | 0.00 | 83 | 1015.1 |
| 20260905121035 | 24 | 0 | 0.0 | 6.4 | 0.00 | 0.00 | 0.00 | 83 | 1015.0 |
| 20260905120537 | 24 | 356 | 1.6 | 6.4 | 0.00 | 0.00 | 0.00 | 83 | 1015.0 |
| 20260905120048 | 24 | 356 | 3.2 | 6.4 | 0.00 | 0.00 | 0.00 | 83 | 1014.9 |
| 20260905115538 | 24 | 356 | 3.2 | 6.4 | 0.00 | 0.00 | 0.00 | 83 | 1014.7 |
| 20260905115041 | 24 | 0 | 0.0 | 1.6 | 0.00 | 0.00 | 0.00 | 83 | 1014.7 |
| 20260905114548 | 24 | 199 | 0.0 | 1.6 | 0.00 | 0.00 | 0.00 | 83 | 1014.6 |
| 20260905114037 | 24 | 199 | 0.0 | 3.2 | 0.00 | 0.00 | 0.00 | 83 | 1014.6 |
| 20260905113539 | 24 | 199 | 1.6 | 3.2 | 0.00 | 0.00 | 0.00 | 83 | 1014.5 |
| 20260905113055 | 25 | 199 | 1.6 | 3.2 | 0.00 | 0.00 | 0.00 | 82 | 1014.5 |
| 20260905112534 | 25 | 199 | 1.6 | 3.2 | 0.00 | 0.00 | 0.00 | 82 | 1014.5 |
| 20260905112035 | 25 | 199 | 1.6 | 3.2 | 0.00 | 0.00 | 0.00 | 82 | 1014.5 |
| 20260905111556 | 25 | 199 | 0.0 | 3.2 | 0.00 | 0.00 | 0.00 | 82 | 1014.5 |
| 20260905111035 | 25 | 199 | 0.0 | 3.2 | 0.00 | 0.00 | 0.00 | 81 | 1014.5 |
| 20260905110542 | 25 | 199 | 1.6 | 3.2 | 0.00 | 0.00 | 0.00 | 81 | 1014.4 |
| 20260905110047 | 25 | 199 | 0.0 | 3.2 | 0.00 | 0.00 | 0.00 | 79 | 1014.4 |
| 20260905105538 | 25 | 0 | 0.0 | 3.2 | 0.00 | 0.00 | 0.00 | 79 | 1014.3 |
| 20260905105036 | 25 | 199 | 1.6 | 3.2 | 0.00 | 0.00 | 0.00 | 79 | 1014.3 |
| 20260905104545 | 25 | 0 | 0.0 | 3.2 | 0.00 | 0.00 | 0.00 | 79 | 1014.4 |
| 20260905104034 | 25 | 0 | 0.0 | 3.2 | 0.00 | 0.00 | 0.00 | 79 | 1014.4 |
| 20260905103539 | 25 | 0 | 0.0 | 3.2 | 0.00 | 0.00 | 0.00 | 79 | 1014.4 |
| 20260905103103 | 25 | 199 | 1.6 | 4.8 | 0.00 | 0.00 | 0.00 | 79 | 1014.4 |
| 20260905102534 | 25 | 199 | 1.6 | 6.4 | 0.00 | 0.00 | 0.00 | 80 | 1014.4 |
| 20260905102034 | 25 | 199 | 1.6 | 6.4 | 0.00 | 0.00 | 0.00 | 80 | 1014.4 |
| 20260905101553 | 25 | 209 | 3.2 | 6.4 | 0.00 | 0.00 | 0.00 | 80 | 1014.5 |
| 20260905101034 | 25 | 218 | 3.2 | 9.7 | 0.00 | 0.00 | 0.00 | 81 | 1014.5 |
| 20260905100534 | 25 | 209 | 3.2 | 9.7 | 0.00 | 0.00 | 0.00 | 81 | 1014.5 |
| 20260905095534 | 25 | 220 | 3.2 | 9.7 | 0.00 | 0.00 | 0.00 | 83 | 1014.6 |
| 20260905095039 | 25 | 210 | 3.2 | 4.8 | 0.00 | 0.00 | 0.00 | 83 | 1014.6 |
| 20260905094555 | 25 | 202 | 1.6 | 3.2 | 0.00 | 0.00 | 0.00 | 84 | 1014.7 |
| 20260905094035 | 25 | 202 | 1.6 | 3.2 | 0.00 | 0.00 | 0.00 | 84 | 1014.6 |
| 20260905093534 | 24 | 202 | 1.6 | 3.2 | 0.00 | 0.00 | 0.00 | 84 | 1014.7 |
| 20260905093050 | 24 | 202 | 1.6 | 3.2 | 0.00 | 0.00 | 0.00 | 84 | 1014.7 |
| 20260905092534 | 24 | 202 | 1.6 | 3.2 | 0.00 | 0.00 | 0.00 | 84 | 1014.8 |
| 20260905092035 | 24 | 0 | 0.0 | 4.8 | 0.00 | 0.00 | 0.00 | 84 | 1014.8 |
| 20260905091553 | 25 | 0 | 1.6 | 4.8 | 0.00 | 0.00 | 0.00 | 84 | 1014.7 |
| 20260905091038 | 25 | 202 | 1.6 | 3.2 | 0.00 | 0.00 | 0.00 | 83 | 1014.7 |
| 20260905090534 | 25 | 202 | 0.0 | 3.2 | 0.00 | 0.00 | 0.00 | 83 | 1014.6 |
| 20260905090055 | 25 | 202 | 1.6 | 3.2 | 0.00 | 0.00 | 0.00 | 83 | 1014.6 |
| 20260905085536 | 25 | 202 | 1.6 | 3.2 | 0.00 | 0.00 | 0.00 | 83 | 1014.6 |
| 20260905085035 | 25 | 202 | 0.0 | 4.8 | 0.00 | 0.00 | 0.00 | 82 | 1014.6 |
| 20260905084606 | 25 | 0 | 0.0 | 4.8 | 0.00 | 0.00 | 0.00 | 82 | 1014.7 |
| 20260905084035 | 25 | 202 | 1.6 | 4.8 | 0.00 | 0.00 | 0.00 | 82 | 1014.7 |
| 20260905083540 | 25 | 202 | 1.6 | 3.2 | 0.00 | 0.00 | 0.00 | 82 | 1014.8 |
| 20260905083059 | 25 | 202 | 0.0 | 3.2 | 0.00 | 0.00 | 0.00 | 82 | 1014.7 |
| 20260905082535 | 25 | 202 | 1.6 | 3.2 | 0.00 | 0.00 | 0.00 | 82 | 1014.7 |
| 20260905082035 | 25 | 0 | 0.0 | 4.8 | 0.00 | 0.00 | 0.00 | 81 | 1014.7 |
| 20260905081545 | 25 | 0 | 1.6 | 4.8 | 0.00 | 0.00 | 0.00 | 81 | 1014.8 |
| 20260905081034 | 25 | 202 | 1.6 | 3.2 | 0.00 | 0.00 | 0.00 | 81 | 1014.8 |
| 20260905080538 | 25 | 202 | 0.0 | 4.8 | 0.00 | 0.00 | 0.00 | 81 | 1014.9 |
| 20260905080134 | 25 | 202 | 1.6 | 6.4 | 0.00 | 0.00 | 0.00 | 81 | 1014.8 |
| 20260905075536 | 25 | 202 | 3.2 | 6.4 | 0.00 | 0.00 | 0.00 | 81 | 1014.9 |
| 20260905075035 | 25 | 166 | 3.2 | 4.8 | 0.00 | 0.00 | 0.00 | 81 | 1014.9 |
| 20260905074553 | 25 | 166 | 1.6 | 4.8 | 0.00 | 0.00 | 0.00 | 81 | 1014.9 |
| 20260905074036 | 26 | 166 | 0.0 | 1.6 | 0.00 | 0.00 | 0.00 | 81 | 1014.9 |
| 20260905073538 | 26 | 0 | 0.0 | 4.8 | 0.00 | 0.00 | 0.00 | 82 | 1014.9 |
| 20260905073049 | 25 | 0 | 0.0 | 4.8 | 0.00 | 0.00 | 0.00 | 82 | 1014.8 |
| 20260905072538 | 26 | 166 | 1.6 | 4.8 | 0.00 | 0.00 | 0.00 | 82 | 1014.8 |
| 20260905072034 | 26 | 166 | 3.2 | 6.4 | 0.00 | 0.00 | 0.00 | 82 | 1014.7 |
| 20260905071602 | 26 | 178 | 3.2 | 6.4 | 0.00 | 0.00 | 0.00 | 82 | 1014.6 |
| 20260905071037 | 26 | 170 | 3.2 | 6.4 | 0.00 | 0.00 | 0.00 | 81 | 1014.7 |
| 20260905070534 | 26 | 170 | 1.6 | 4.8 | 0.00 | 0.00 | 0.00 | 81 | 1014.8 |
| 20260905070057 | 26 | 170 | 1.6 | 4.8 | 0.00 | 0.00 | 0.00 | 81 | 1014.9 |
| 20260905065534 | 26 | 170 | 1.6 | 3.2 | 0.00 | 0.00 | 0.00 | 81 | 1014.9 |
| 20260905065035 | 26 | 170 | 1.6 | 8.0 | 0.00 | 0.00 | 0.00 | 81 | 1014.9 |
| 20260905064600 | 26 | 170 | 1.6 | 8.0 | 0.00 | 0.00 | 0.00 | 81 | 1014.8 |
| 20260905064035 | 26 | 186 | 3.2 | 6.4 | 0.00 | 0.00 | 0.00 | 81 | 1014.6 |
| 20260905063535 | 26 | 181 | 3.2 | 6.4 | 0.00 | 0.00 | 0.00 | 82 | 1014.7 |
| 20260905063057 | 26 | 181 | 3.2 | 6.4 | 0.00 | 0.00 | 0.00 | 82 | 1014.7 |
| 20260905062535 | 26 | 181 | 3.2 | 6.4 | 0.00 | 0.00 | 0.00 | 83 | 1014.7 |
| 20260905062037 | 25 | 180 | 3.2 | 6.4 | 0.00 | 0.00 | 0.00 | 84 | 1014.8 |
| 20260905061551 | 25 | 188 | 3.2 | 6.4 | 0.00 | 0.00 | 0.00 | 84 | 1014.8 |
| 20260905061037 | 25 | 113 | 3.2 | 6.4 | 0.00 | 0.00 | 0.00 | 85 | 1014.9 |
| 20260905060535 | 25 | 113 | 1.6 | 4.8 | 0.00 | 0.00 | 0.00 | 85 | 1015.0 |
| 20260905060101 | 25 | 113 | 1.6 | 3.2 | 0.00 | 0.00 | 0.00 | 85 | 1014.9 |
| 20260905055538 | 25 | 113 | 1.6 | 3.2 | 0.00 | 0.00 | 0.00 | 85 | 1015.0 |
| 20260905055034 | 25 | 113 | 1.6 | 4.8 | 0.00 | 0.00 | 0.00 | 85 | 1015.1 |
| 20260905054554 | 25 | 113 | 1.6 | 4.8 | 0.00 | 0.00 | 0.00 | 84 | 1015.1 |
| 20260905054035 | 26 | 113 | 1.6 | 4.8 | 0.00 | 0.00 | 0.00 | 84 | 1015.2 |
| 20260905053536 | 26 | 113 | 0.0 | 4.8 | 0.00 | 0.00 | 0.00 | 83 | 1015.2 |
| 20260905053058 | 26 | 113 | 1.6 | 4.8 | 0.00 | 0.00 | 0.00 | 83 | 1015.3 |